Weather History for Sauk Centre, MN

Change the Weather History Date:

Thursday, December 5, 2013

  Actual Average (KGHW) Record (KGHW)
Temperature  
Mean Temperature -2 °F -  
Max Temperature 5 °F 28 °F 48 °F (1990)
Min Temperature -9 °F 12 °F -13 °F (1955)
Degree Days  
Heating Degree Days 67    
Moisture  
Dew Point -6 °F    
Average Humidity 78    
Maximum Humidity 83    
Minimum Humidity 72    
Precipitation  
Precipitation 0.00 in - - ()
Sea Level Pressure  
Sea Level Pressure 30.02 in    
Wind  
Wind Speed 16 mph (West)    
Max Wind Speed 22 mph    
Max Gust Speed 31 mph    
Visibility 9 miles    
Events      
Averages and records for this station are not official NWS values.
T = Trace of Precipitation, MM = Missing Value Source: NWS Daily Summary

Daily Weather History Graph

Daily Weather History Graph

Search for Another Location

Airport:

Trip Planner

Search our weather history database for the weather conditions in past years. The results will help you decide how hot, cold, wet, or windy it might be!

Date:

Astronomy

Dec. 05, 2013 Rise Set
Actual Time 7:44 AM CST 4:35 PM CST
Civil Twilight 7:10 AM CST 5:09 PM CST
Nautical Twilight 6:33 AM CST 5:47 PM CST
Astronomical Twilight 5:57 AM CST 6:23 PM CST
Moon 10:01 AM CST (12/5) 8:02 PM CST (12/5)
Length of Visible Light 9h 58m
Length of Day
8h 51m
Waxing Crescent, 11% of the Moon is Illuminated
Dec 5
Waxing Crescent
Dec 9
First Quarter
Dec 17
Full
Dec 25
Last Quarter
Jan 1
New

Hourly Weather History & Observations

Time (CST) Temp. Windchill Dew Point Humidity Pressure Visibility Wind Dir Wind Speed Gust Speed Precip Events Conditions
12:13 AM 5.5 °F -15.5 °F 1.4 °F 83% 29.70 in 5.0 mi West 21.9 mph 27.6 mph N/A   Clear
12:33 AM 4.8 °F -14.9 °F 0.3 °F 82% 29.70 in 7.0 mi West 18.4 mph 27.6 mph N/A   Clear
12:53 AM 4.1 °F -16.9 °F -0.4 °F 82% 29.72 in 5.0 mi West 20.7 mph 24.2 mph N/A   Clear
1:13 AM 4.1 °F -14.7 °F -0.4 °F 82% 29.72 in 7.0 mi West 16.1 mph 24.2 mph N/A   Clear
1:33 AM 4.1 °F -14.7 °F -0.4 °F 82% 29.74 in 7.0 mi WNW 16.1 mph 20.7 mph N/A   Clear
1:53 AM 4.1 °F -15.3 °F -0.6 °F 81% 29.74 in 10.0 mi West 17.3 mph 23.0 mph N/A   Scattered Clouds
2:13 AM 3.9 °F -15.0 °F -0.9 °F 80% 29.75 in 7.0 mi West 16.1 mph 26.5 mph N/A   Clear
2:33 AM 3.7 °F -16.4 °F -1.3 °F 80% 29.77 in 5.0 mi West 18.4 mph 26.5 mph N/A   Haze
2:53 AM 3.6 °F -16.6 °F -1.3 °F 80% 29.77 in 7.0 mi West 18.4 mph 24.2 mph N/A   Clear
3:13 AM 3.6 °F -16.6 °F -1.3 °F 80% 29.79 in 7.0 mi West 18.4 mph 24.2 mph N/A   Scattered Clouds
3:33 AM 3.2 °F -17.1 °F -1.7 °F 80% 29.80 in 7.0 mi West 18.4 mph 25.3 mph N/A   Scattered Clouds
3:53 AM 3.2 °F -16.5 °F -1.7 °F 80% 29.81 in 7.0 mi West 17.3 mph 23.0 mph N/A   Clear
4:13 AM 3.0 °F -16.1 °F -2.2 °F 79% 29.82 in 10.0 mi WNW 16.1 mph 23.0 mph N/A   Scattered Clouds
4:33 AM 2.8 °F -16.4 °F -2.4 °F 79% 29.83 in 10.0 mi WNW 16.1 mph 23.0 mph N/A   Scattered Clouds
4:53 AM 2.8 °F -18.1 °F -2.2 °F 79% 29.85 in 7.0 mi West 19.6 mph 28.8 mph N/A   Clear
5:13 AM 2.3 °F -18.8 °F -2.7 °F 79% 29.86 in 7.0 mi West 19.6 mph 27.6 mph N/A   Mostly Cloudy
5:32 AM 1.8 °F -18.9 °F -3.3 °F 79% 29.87 in 5.0 mi West 18.4 mph 26.5 mph N/A   Haze
5:53 AM 0.9 °F -18.3 °F -4.0 °F 80% 29.87 in 7.0 mi West 15.0 mph 31.1 mph N/A   Overcast
6:13 AM -0.0 °F -19.4 °F -5.1 °F 79% 29.89 in 10.0 mi West 15.0 mph 25.3 mph N/A   Mostly Cloudy
6:32 AM -0.8 °F -19.6 °F -5.8 °F 79% 29.89 in 10.0 mi West 13.8 mph 17.3 mph N/A   Scattered Clouds
6:53 AM -1.3 °F -21.7 °F -6.2 °F 80% 29.91 in 10.0 mi West 16.1 mph 24.2 mph N/A   Scattered Clouds
7:13 AM -1.3 °F -21.0 °F -6.3 °F 79% 29.92 in 7.0 mi West 15.0 mph 23.0 mph N/A   Scattered Clouds
7:32 AM -1.7 °F -22.8 °F -6.5 °F 80% 29.92 in 7.0 mi WNW 17.3 mph 23.0 mph N/A   Scattered Clouds
7:53 AM -1.8 °F -20.2 °F -6.9 °F 79% 29.93 in 7.0 mi WNW 12.7 mph 23.0 mph N/A   Clear
8:13 AM -1.8 °F -20.2 °F -7.1 °F 78% 29.95 in 10.0 mi West 12.7 mph 20.7 mph N/A   Clear
8:32 AM -1.7 °F -20.8 °F -7.2 °F 77% 29.96 in 10.0 mi West 13.8 mph 20.7 mph N/A   Clear
8:53 AM -1.5 °F -21.9 °F -7.2 °F 77% 29.97 in 10.0 mi West 16.1 mph - N/A   Clear
9:13 AM -1.3 °F -23.5 °F -6.9 °F 77% 29.99 in 10.0 mi West 19.6 mph 24.2 mph N/A   Clear
9:33 AM -0.9 °F -22.4 °F -6.7 °F 77% 29.99 in 10.0 mi West 18.4 mph 25.3 mph N/A   Clear
9:53 AM -0.8 °F -22.8 °F -6.9 °F 75% 30.01 in 10.0 mi West 19.6 mph 27.6 mph N/A   Clear
10:13 AM -0.6 °F -20.1 °F -6.7 °F 75% 30.02 in 10.0 mi West 15.0 mph 24.2 mph N/A   Clear
10:33 AM -0.0 °F -21.3 °F -6.2 °F 75% 30.03 in 10.0 mi West 18.4 mph 23.0 mph N/A   Clear
10:53 AM 0.3 °F -19.6 °F -6.0 °F 75% 30.05 in 7.0 mi West 16.1 mph 27.6 mph N/A   Clear
11:12 AM 0.7 °F -19.1 °F -5.8 °F 74% 30.06 in 10.0 mi West 16.1 mph 24.2 mph N/A   Clear
11:33 AM 1.0 °F -20.9 °F -5.4 °F 74% 30.06 in 10.0 mi West 20.7 mph 25.3 mph N/A   Scattered Clouds
11:53 AM 1.0 °F -20.4 °F -5.6 °F 74% 30.06 in 7.0 mi West 19.6 mph 25.3 mph N/A   Scattered Clouds
12:12 PM 1.0 °F -18.7 °F -5.6 °F 74% 30.06 in 7.0 mi West 16.1 mph 24.2 mph N/A   Scattered Clouds
12:33 PM 1.4 °F -18.8 °F -5.1 °F 74% 30.08 in 10.0 mi West 17.3 mph 28.8 mph N/A   Scattered Clouds
12:53 PM 1.4 °F -18.8 °F -5.3 °F 74% 30.07 in 7.0 mi West 17.3 mph 29.9 mph N/A   Mostly Cloudy
1:13 PM 1.2 °F -18.4 °F -5.6 °F 73% 30.07 in 7.0 mi WNW 16.1 mph - N/A   Scattered Clouds
1:33 PM 1.4 °F -19.4 °F -5.8 °F 72% 30.08 in 10.0 mi West 18.4 mph 24.2 mph N/A   Scattered Clouds
1:53 PM 1.4 °F -16.9 °F -5.8 °F 72% 30.08 in 10.0 mi WNW 13.8 mph 21.9 mph N/A   Scattered Clouds
2:13 PM 1.2 °F -17.8 °F -5.8 °F 72% 30.09 in 10.0 mi West 15.0 mph 24.2 mph N/A   Scattered Clouds
2:33 PM 1.4 °F -18.8 °F -5.3 °F 74% 30.09 in 10.0 mi WNW 17.3 mph 21.9 mph N/A   Clear
2:53 PM 0.9 °F -18.3 °F -5.8 °F 74% 30.09 in 10.0 mi WNW 15.0 mph 20.7 mph N/A   Clear
3:13 PM 0.7 °F -19.8 °F -6.0 °F 74% 30.09 in 10.0 mi West 17.3 mph 23.0 mph N/A   Clear
3:33 PM 0.5 °F -18.0 °F -5.8 °F 75% 30.10 in 10.0 mi West 13.8 mph 19.6 mph N/A   Clear
3:53 PM -0.2 °F -19.6 °F -6.2 °F 76% 30.10 in 10.0 mi West 15.0 mph 23.0 mph N/A   Clear
4:13 PM -0.8 °F -18.9 °F -6.3 °F 77% 30.11 in 10.0 mi WNW 12.7 mph 18.4 mph N/A   Clear
4:32 PM -1.3 °F -18.7 °F -7.4 °F 75% 30.11 in 10.0 mi West 11.5 mph 20.7 mph N/A   Clear
4:53 PM -2.2 °F -18.0 °F -7.8 °F 77% 30.12 in 10.0 mi West 9.2 mph - N/A   Clear
5:13 PM -2.9 °F -20.8 °F -8.3 °F 78% 30.13 in 10.0 mi West 11.5 mph - N/A   Clear
5:32 PM -3.5 °F -19.5 °F -8.7 °F 78% 30.14 in 10.0 mi West 9.2 mph - N/A   Clear
5:53 PM -3.8 °F -18.8 °F -9.2 °F 78% 30.15 in 10.0 mi West 8.1 mph - N/A   Clear
6:13 PM -4.0 °F -21.2 °F -9.4 °F 78% 30.16 in 10.0 mi West 10.4 mph - N/A   Clear
6:32 PM -4.5 °F -23.6 °F -9.6 °F 79% 30.17 in 10.0 mi West 12.7 mph - N/A   Clear
6:53 PM -4.7 °F -22.1 °F -9.6 °F 80% 30.17 in 10.0 mi West 10.4 mph - N/A   Clear
7:13 PM -4.9 °F -18.8 °F -9.8 °F 80% 30.19 in 10.0 mi West 6.9 mph - N/A   Clear
7:33 PM -5.4 °F -21.9 °F -10.5 °F 79% 30.20 in 10.0 mi West 9.2 mph - N/A   Clear
7:53 PM -5.6 °F -22.2 °F -10.7 °F 79% 30.21 in 10.0 mi West 9.2 mph - N/A   Clear
8:13 PM -5.8 °F -24.4 °F -10.7 °F 79% 30.22 in 10.0 mi West 11.5 mph - N/A   Clear
8:33 PM -6.0 °F -21.5 °F -11.2 °F 78% 30.23 in 10.0 mi West 8.1 mph - N/A   Clear
8:53 PM -6.7 °F -21.0 °F -11.6 °F 79% 30.24 in 10.0 mi West 6.9 mph - N/A   Clear
9:13 PM -7.2 °F -20.1 °F -11.9 °F 80% 30.24 in 10.0 mi WSW 5.8 mph - N/A   Clear
9:33 PM -8.0 °F -25.0 °F -12.6 °F 80% 30.24 in 10.0 mi West 9.2 mph - N/A   Clear
9:53 PM -8.5 °F -23.2 °F -13.0 °F 81% 30.25 in 10.0 mi West 6.9 mph - N/A   Clear
10:13 PM -9.0 °F -27.4 °F -13.5 °F 81% 30.25 in 10.0 mi West 10.4 mph - N/A   Clear
10:33 PM -8.5 °F -27.8 °F -13.0 °F 81% 30.25 in 10.0 mi West 11.5 mph - N/A   Clear
10:53 PM -8.7 °F -27.0 °F -13.2 °F 81% 30.26 in 10.0 mi West 10.4 mph - N/A   Clear
11:13 PM -8.9 °F -27.2 °F -13.5 °F 80% 30.27 in 10.0 mi West 10.4 mph - N/A   Clear
11:33 PM -8.9 °F -25.0 °F -13.5 °F 80% 30.27 in 10.0 mi West 8.1 mph - N/A   Clear
11:53 PM -8.9 °F -27.2 °F -13.4 °F 81% 30.27 in 10.0 mi West 10.4 mph - N/A   Clear